| time (UTC) | temp C | wind direction | speed KPH | gust KPH | rain 1hr cm | rain 24hr cm | rain mn cm | humidity % | barometer mb |
| 20260902214531 | -17 | 0.0 | 0.0 | 0.00 | 0.00 | 0.00 | 1013.7 | ||
| 20260902213029 | -17 | 0.0 | 0.0 | 0.00 | 0.00 | 0.00 | 1013.7 | ||
| 20260902211522 | -17 | 0.0 | 0.0 | 0.00 | 0.00 | 0.00 | 1013.8 | ||
| 20260902210020 | -17 | 0.0 | 0.0 | 0.00 | 0.00 | 0.00 | 1013.8 | ||
| 20260902204513 | -17 | 0.0 | 0.0 | 0.00 | 0.00 | 0.00 | 1013.9 | ||
| 20260902203008 | -17 | 0.0 | 0.0 | 0.00 | 0.00 | 0.00 | 1013.9 | ||
| 20260902201511 | -17 | 0.0 | 0.0 | 0.00 | 0.00 | 0.00 | 1014.0 | ||
| 20260902200059 | -17 | 0.0 | 0.0 | 0.00 | 0.00 | 0.00 | 1014.1 | ||
| 20260902194556 | -17 | 0.0 | 0.0 | 0.00 | 0.00 | 0.00 | 1014.1 | ||
| 20260902193051 | -17 | 0.0 | 0.0 | 0.00 | 0.00 | 0.00 | 1014.2 | ||
| 20260902191546 | -17 | 0.0 | 0.0 | 0.00 | 0.00 | 0.00 | 1014.4 | ||
| 20260902190041 | -17 | 0.0 | 0.0 | 0.00 | 0.00 | 0.00 | 1014.4 | ||
| 20260902184537 | -17 | 0.0 | 0.0 | 0.00 | 0.00 | 0.00 | 1014.6 | ||
| 20260902183032 | -17 | 0.0 | 0.0 | 0.00 | 0.00 | 0.00 | 1014.6 | ||
| 20260902181531 | -17 | 0.0 | 0.0 | 0.00 | 0.00 | 0.00 | 1014.6 | ||
| 20260902180027 | -17 | 0.0 | 0.0 | 0.00 | 0.00 | 0.00 | 1014.8 | ||
| 20260902174520 | -17 | 0.0 | 0.0 | 0.00 | 0.00 | 0.00 | 1014.8 | ||
| 20260902173023 | -17 | 0.0 | 0.0 | 0.00 | 0.00 | 0.00 | 1014.7 | ||
| 20260902171512 | -17 | 0.0 | 0.0 | 0.00 | 0.00 | 0.00 | 1014.8 | ||
| 20260902170007 | -17 | 0.0 | 0.0 | 0.00 | 0.00 | 0.00 | 1014.9 | ||
| 20260902164501 | -17 | 0.0 | 0.0 | 0.00 | 0.00 | 0.00 | 1015.2 | ||
| 20260902163057 | -17 | 0.0 | 0.0 | 0.00 | 0.00 | 0.00 | 1015.2 | ||
| 20260902161552 | -17 | 0.0 | 0.0 | 0.00 | 0.00 | 0.00 | 1015.1 | ||
| 20260902160107 | -17 | 0.0 | 0.0 | 0.00 | 0.00 | 0.00 | 1015.3 | ||
| 20260902154550 | -17 | 0.0 | 0.0 | 0.00 | 0.00 | 0.00 | 1015.6 | ||
| 20260902153039 | -17 | 0.0 | 0.0 | 0.00 | 0.00 | 0.00 | 1015.8 | ||
| 20260902151535 | -17 | 0.0 | 0.0 | 0.00 | 0.00 | 0.00 | 1015.6 | ||
| 20260902150031 | -17 | 0.0 | 0.0 | 0.00 | 0.00 | 0.00 | 1015.7 | ||
| 20260902144526 | 29 | 360 | 4.8 | 16.1 | 0.00 | 0.00 | 0.00 | 100 | 1015.5 |
| 20260902143021 | 29 | 360 | 4.8 | 12.9 | 0.00 | 0.00 | 0.00 | 100 | 1015.6 |
| 20260902141517 | 28 | 256 | 3.2 | 12.9 | 0.00 | 0.00 | 0.00 | 100 | 1015.4 |
| 20260902140013 | 28 | 249 | 0.0 | 11.3 | 0.00 | 0.00 | 0.00 | 100 | 1015.5 |
| 20260902134512 | 28 | 223 | 1.6 | 11.3 | 0.00 | 0.00 | 0.00 | 100 | 1015.6 |
| 20260902133005 | 27 | 360 | 3.2 | 14.5 | 0.00 | 0.00 | 0.00 | 100 | 1015.6 |
| 20260902131600 | 26 | 228 | 0.0 | 9.7 | 0.00 | 0.00 | 0.00 | 100 | 1015.6 |
| 20260902130055 | 26 | 223 | 0.0 | 9.7 | 0.00 | 0.00 | 0.00 | 100 | 1015.8 |
| 20260902124552 | 25 | 236 | 0.0 | 9.7 | 0.00 | 0.00 | 0.00 | 100 | 1015.7 |
| 20260902123050 | 25 | 220 | 0.0 | 6.4 | 0.00 | 0.00 | 0.00 | 100 | 1015.7 |
| 20260902121542 | 25 | 217 | 0.0 | 3.2 | 0.00 | 0.00 | 0.00 | 100 | 1015.5 |
| 20260902120043 | 25 | 217 | 0.0 | 6.4 | 0.00 | 0.00 | 0.00 | 100 | 1015.4 |
| 20260902114548 | 24 | 224 | 0.0 | 6.4 | 0.00 | 0.00 | 0.00 | 100 | 1015.4 |
| 20260902113029 | 24 | 231 | 0.0 | 1.6 | 0.00 | 0.00 | 0.00 | 100 | 1015.3 |
| 20260902111539 | 24 | 234 | 0.0 | 6.4 | 0.00 | 0.00 | 0.00 | 100 | 1015.4 |
| 20260902110047 | 24 | 236 | 0.0 | 0.0 | 0.00 | 0.00 | 0.00 | 100 | 1015.5 |
| 20260902104522 | 24 | 243 | 0.0 | 0.0 | 0.00 | 0.00 | 0.00 | 100 | 1015.6 |
| 20260902103012 | 25 | 252 | 0.0 | 0.0 | 0.00 | 0.00 | 0.00 | 100 | 1015.5 |
| 20260902101508 | 25 | 250 | 0.0 | 1.6 | 0.00 | 0.00 | 0.00 | 100 | 1015.4 |
| 20260902100004 | 25 | 248 | 0.0 | 8.0 | 0.00 | 0.00 | 0.00 | 100 | 1015.4 |
| 20260902094559 | 25 | 230 | 0.0 | 1.6 | 0.00 | 0.00 | 0.00 | 100 | 1015.4 |
| 20260902093055 | 25 | 230 | 0.0 | 0.0 | 0.00 | 0.00 | 0.00 | 100 | 1015.3 |
| 20260902091555 | 25 | 229 | 0.0 | 0.0 | 0.00 | 0.00 | 0.00 | 100 | 1015.1 |
| 20260902090047 | 25 | 229 | 0.0 | 0.0 | 0.00 | 0.00 | 0.00 | 100 | 1015.1 |
| 20260902084544 | 25 | 229 | 0.0 | 0.0 | 0.00 | 0.00 | 0.00 | 100 | 1015.0 |
| 20260902083037 | 25 | 229 | 0.0 | 0.0 | 0.00 | 0.00 | 0.00 | 100 | 1015.1 |
| 20260902081536 | 25 | 229 | 0.0 | 0.0 | 0.00 | 0.00 | 0.00 | 100 | 1015.0 |
| 20260902080028 | 25 | 229 | 0.0 | 0.0 | 0.00 | 0.00 | 0.00 | 100 | 1015.1 |
| 20260902074525 | 25 | 229 | 0.0 | 0.0 | 0.00 | 0.00 | 0.00 | 100 | 1015.0 |
| 20260902073020 | 25 | 229 | 0.0 | 0.0 | 0.00 | 0.00 | 0.00 | 100 | 1015.0 |
| 20260902071519 | 26 | 229 | 0.0 | 0.0 | 0.00 | 0.00 | 0.00 | 100 | 1014.9 |
| 20260902070011 | 26 | 229 | 0.0 | 6.4 | 0.00 | 0.00 | 0.00 | 100 | 1015.0 |
| 20260902064507 | 26 | 229 | 0.0 | 6.4 | 0.00 | 0.00 | 0.00 | 100 | 1015.1 |
| 20260902063005 | 26 | 223 | 0.0 | 0.0 | 0.00 | 0.00 | 0.00 | 100 | 1015.2 |
| 20260902061613 | 26 | 223 | 0.0 | 0.0 | 0.00 | 0.00 | 0.00 | 100 | 1015.1 |
| 20260902060054 | 26 | 222 | 0.0 | 0.0 | 0.00 | 0.00 | 0.00 | 100 | 1015.1 |
| 20260902054552 | 26 | 222 | 0.0 | 0.0 | 0.00 | 0.00 | 0.00 | 100 | 1015.0 |
| 20260902053045 | 26 | 222 | 0.0 | 0.0 | 0.00 | 0.00 | 0.00 | 100 | 1015.1 |
| 20260902051544 | 26 | 222 | 0.0 | 0.0 | 0.00 | 0.00 | 0.00 | 100 | 1015.2 |
| 20260902050036 | 27 | 222 | 0.0 | 0.0 | 0.00 | 0.00 | 0.00 | 100 | 1015.1 |
| 20260902044532 | 27 | 222 | 0.0 | 0.0 | 0.00 | 0.00 | 0.00 | 100 | 1015.2 |
| 20260902043028 | 27 | 222 | 0.0 | 0.0 | 0.00 | 0.00 | 0.00 | 100 | 1015.1 |
| 20260902041526 | 27 | 222 | 0.0 | 0.0 | 0.00 | 0.00 | 0.00 | 100 | 1015.3 |
| 20260902040020 | 27 | 222 | 0.0 | 0.0 | 0.00 | 0.00 | 0.00 | 100 | 1015.4 |
| 20260902034515 | 28 | 227 | 0.0 | 9.7 | 0.00 | 0.00 | 0.00 | 100 | 1015.3 |
| 20260902033012 | 28 | 232 | 0.0 | 1.6 | 0.00 | 0.00 | 0.00 | 100 | 1015.5 |
| 20260902031506 | 28 | 232 | 0.0 | 8.0 | 0.00 | 0.00 | 0.00 | 100 | 1015.4 |
| 20260902030002 | 28 | 234 | 0.0 | 9.7 | 0.00 | 0.00 | 0.00 | 100 | 1015.4 |
| 20260902024559 | 28 | 231 | 0.0 | 4.8 | 0.00 | 0.00 | 0.00 | 100 | 1015.4 |
| 20260902023054 | 29 | 234 | 0.0 | 8.0 | 0.00 | 0.00 | 0.00 | 100 | 1015.4 |
| 20260902021552 | 29 | 225 | 0.0 | 8.0 | 0.00 | 0.00 | 0.00 | 100 | 1015.3 |
| 20260902020044 | 30 | 233 | 0.0 | 6.4 | 0.00 | 0.00 | 0.00 | 100 | 1015.2 |
| 20260902014541 | 30 | 224 | 0.0 | 8.0 | 0.00 | 0.00 | 0.00 | 100 | 1015.1 |
| 20260902013036 | 30 | 220 | 0.0 | 4.8 | 0.00 | 0.00 | 0.00 | 100 | 1014.9 |
| 20260902011531 | 31 | 229 | 0.0 | 4.8 | 0.00 | 0.00 | 0.00 | 100 | 1014.7 |
| 20260902010040 | 31 | 227 | 0.0 | 8.0 | 0.00 | 0.00 | 0.00 | 100 | 1014.5 |
| 20260902004526 | 31 | 236 | 0.0 | 8.0 | 0.00 | 0.00 | 0.00 | 100 | 1014.3 |
| 20260902003019 | 32 | 216 | 0.0 | 6.4 | 0.00 | 0.00 | 0.00 | 100 | 1014.3 |
| 20260902001514 | 32 | 234 | 0.0 | 11.3 | 0.00 | 0.00 | 0.00 | 100 | 1014.4 |
| 20260902000020 | 33 | 217 | 0.0 | 11.3 | 0.00 | 0.00 | 0.00 | 100 | 1014.3 |
| 20260901234506 | 33 | 231 | 0.0 | 12.9 | 0.00 | 0.00 | 0.00 | 100 | 1014.4 |
| 20260901233000 | 33 | 219 | 0.0 | 11.3 | 0.00 | 0.00 | 0.00 | 100 | 1014.4 |
| 20260901231600 | 34 | 215 | 0.0 | 9.7 | 0.00 | 0.00 | 0.00 | 100 | 1014.5 |
| 20260901230056 | -17 | 0.0 | 0.0 | 0.00 | 0.00 | 0.00 | 1014.5 | ||
| 20260901224548 | -17 | 0.0 | 0.0 | 0.00 | 0.00 | 0.00 | 1014.5 | ||
| 20260901223043 | -17 | 0.0 | 0.0 | 0.00 | 0.00 | 0.00 | 1014.6 | ||
| 20260901221603 | -17 | 0.0 | 0.0 | 0.00 | 0.00 | 0.00 | 1014.6 | ||
| 20260901220035 | -17 | 0.0 | 0.0 | 0.00 | 0.00 | 0.00 | 1014.6 |